FENGYUN 1C DEB, 30072

Orbit data source: Space-Track

FENGYUN 1C DEB, 30072 is space debris in SSO originally from a launch on Mon, 10 May 1999 UTC launched from the Taiyaun Space Center, China (TSC). Fengyun 1C debris stems from the Chinese weather satellite Fengyun-1C, which was intentionally destroyed by a Chinese anti-satellite missile in 2007. This event dramatically increased the amount of space debris, with thousands of trackable fragments posing hazards to satellites and human spaceflight. The Fengyun 1C debris cloud has become a focal point in discussions about space sustainability and the need for international regulations to prevent the creation of new debris.

Loading next visibility...
Identifier
30072, 1999-025PZ
Orbit
SSO
Country
Flag of CNCN / PRC
Related business
Manufacturer
Unknown
Mission
Spacecraft
Bus & Motor
Unknown
Mass
Unknown
Launch date (UTC)
1999-05-10 (26 years ago)
Launch vehicle
Unknown
Launch site
Taiyaun Space Center, China (TSC)
Object type
Payload
Rocket body
Debris
Shape & HBR
Unknown shape, 0.1 m
Radar Cross Section
Small (<0.1 m²)

Expand to show TLE details & history
Last TLE update: 7 hours ago

TLE from 7 hours ago
0 FENGYUN 1C DEB
1 30072U 99025PZ  25308.13699663  .00008697  00000-0  29045-2 0  9990
2 30072  99.0790  94.2799 0057691  26.6221 333.7906 14.36764088966161
Epoch: 2025-11-04T03:17Z
TLE epoch observation values (Epoch: 2025-11-04T03:17:16.508Z)
Latitude
-0.00004°
Longitude
1.33278°
Altitude
735.18 km
Speed
7.507 km/s
True Right ascension
06h 17m 07s
True Declination
0° 00' 00"
Sunlit
Object was in full shadow at epoch
Visualization orbit readout
Latitude
Unknown
Longitude
Unknown
Altitude
Unknown
Speed
Unknown
Apparent Right ascension
Unknown
Apparent Declination
Unknown
Sunlit
N/A
Visualization observer readout
Local Sidereal Time
06:28:00
Azimuth
Unknown
Elevation
Unknown
Doppler factor
Unknown
Orbital elements
Apogee altitude
807.582 km
Perigee altitude
725.147 km
Semi-major axis
7,144.501 km
Eccentricity
0.00577
Inclination
99.079°
RAAN
94.2799°
Arg. of periapsis
26.6221°
True anomaly
333.49673°
Mean anomaly
333.7906°
Eccentric anomaly
333.64385°
Mean motion
3.59406 °/min
Orbital period
100.17 mins
BSTAR
0.0029045
Loading maneuver chart data...
Computing Atmospheric mass density...

Documentation

Showing up to 5 results
|